| time (UTC) | temp F | wind direction | speed MPH | gust MPH | rain 1hr in | rain 24hr in | rain mn in | humidity % | barometer mb |
| 20260509072510 | 57 | 233 | 0.0 | 0.0 | 0.00 | 0.60 | 0.00 | 92 | 1011.0 |
| 20260509072009 | 57 | 233 | 0.0 | 0.0 | 0.00 | 0.60 | 0.00 | 92 | 1011.0 |
| 20260509071524 | 57 | 233 | 0.0 | 0.0 | 0.00 | 0.60 | 0.00 | 92 | 1011.1 |
| 20260509071006 | 57 | 233 | 0.0 | 0.0 | 0.00 | 0.60 | 0.00 | 92 | 1011.2 |
| 20260509070503 | 57 | 233 | 0.0 | 0.0 | 0.00 | 0.60 | 0.00 | 92 | 1011.2 |
| 20260509070026 | 57 | 233 | 0.0 | 0.0 | 0.00 | 0.60 | 0.00 | 92 | 1011.3 |
| 20260509065507 | 58 | 233 | 0.0 | 0.0 | 0.00 | 0.60 | 0.00 | 92 | 1011.4 |
| 20260509065004 | 58 | 233 | 0.0 | 0.0 | 0.00 | 0.60 | 0.00 | 92 | 1011.5 |
| 20260509064524 | 58 | 233 | 0.0 | 0.0 | 0.00 | 0.60 | 0.00 | 92 | 1011.4 |
| 20260509064009 | 58 | 233 | 0.0 | 0.0 | 0.00 | 0.60 | 0.00 | 92 | 1011.3 |
| 20260509063511 | 58 | 233 | 0.0 | 0.0 | 0.00 | 0.60 | 0.00 | 92 | 1011.4 |
| 20260509063023 | 58 | 233 | 0.0 | 0.0 | 0.00 | 0.60 | 0.00 | 92 | 1011.4 |
| 20260509062508 | 58 | 232 | 0.0 | 0.0 | 0.00 | 0.60 | 0.00 | 92 | 1011.5 |
| 20260509062009 | 58 | 233 | 0.0 | 0.0 | 0.00 | 0.60 | 0.00 | 92 | 1011.3 |
| 20260509061519 | 58 | 233 | 0.0 | 0.0 | 0.00 | 0.60 | 0.00 | 92 | 1011.3 |
| 20260509061004 | 58 | 233 | 0.0 | 0.0 | 0.00 | 0.60 | 0.00 | 92 | 1011.4 |
| 20260509060509 | 58 | 233 | 0.0 | 0.0 | 0.00 | 0.60 | 0.00 | 92 | 1011.4 |
| 20260509060013 | 58 | 233 | 0.0 | 0.0 | 0.00 | 0.60 | 0.00 | 92 | 1011.3 |
| 20260509055510 | 58 | 232 | 0.0 | 0.0 | 0.00 | 0.60 | 0.00 | 92 | 1011.4 |
| 20260509055013 | 58 | 232 | 0.0 | 0.0 | 0.00 | 0.60 | 0.00 | 92 | 1011.3 |
| 20260509054512 | 59 | 233 | 0.0 | 0.0 | 0.00 | 0.60 | 0.00 | 92 | 1011.2 |
| 20260509054011 | 59 | 233 | 0.0 | 0.0 | 0.00 | 0.60 | 0.00 | 92 | 1011.0 |
| 20260509053507 | 59 | 233 | 0.0 | 0.0 | 0.00 | 0.60 | 0.00 | 92 | 1010.9 |
| 20260509053010 | 59 | 233 | 0.0 | 0.0 | 0.00 | 0.60 | 0.00 | 92 | 1011.0 |
| 20260509052508 | 59 | 233 | 0.0 | 0.0 | 0.00 | 0.60 | 0.00 | 92 | 1011.0 |
| 20260509052008 | 59 | 233 | 0.0 | 0.0 | 0.00 | 0.60 | 0.00 | 92 | 1011.1 |
| 20260509051527 | 59 | 233 | 0.0 | 0.0 | 0.00 | 0.60 | 0.00 | 92 | 1011.1 |
| 20260509051007 | 59 | 233 | 0.0 | 0.0 | 0.00 | 0.60 | 0.00 | 92 | 1011.2 |
| 20260509050507 | 59 | 233 | 0.0 | 0.0 | 0.00 | 0.60 | 0.00 | 92 | 1011.3 |
| 20260509050042 | 59 | 233 | 0.0 | 0.0 | 0.00 | 0.60 | 0.00 | 92 | 1011.4 |
| 20260509045507 | 60 | 233 | 0.0 | 2.0 | 0.00 | 0.60 | 0.60 | 92 | 1011.3 |
| 20260509045003 | 60 | 233 | 0.0 | 2.0 | 0.00 | 0.60 | 0.60 | 92 | 1011.3 |
| 20260509044524 | 60 | 233 | 0.0 | 2.0 | 0.00 | 0.60 | 0.60 | 92 | 1011.3 |
| 20260509043510 | 60 | 232 | 0.0 | 2.0 | 0.01 | 0.60 | 0.60 | 92 | 1011.2 |
| 20260509043021 | 60 | 239 | 0.0 | 3.0 | 0.01 | 0.60 | 0.60 | 92 | 1011.2 |
| 20260509042507 | 60 | 240 | 0.0 | 3.0 | 0.01 | 0.60 | 0.60 | 92 | 1011.2 |
| 20260509042017 | 60 | 204 | 0.0 | 3.0 | 0.01 | 0.60 | 0.60 | 92 | 1011.3 |
| 20260509041519 | 60 | 174 | 1.0 | 3.0 | 0.01 | 0.60 | 0.60 | 92 | 1011.2 |
| 20260509041004 | 60 | 173 | 0.0 | 2.0 | 0.01 | 0.60 | 0.60 | 91 | 1011.3 |
| 20260509040507 | 60 | 173 | 0.0 | 2.0 | 0.01 | 0.60 | 0.60 | 91 | 1011.2 |
| 20260509040017 | 60 | 173 | 0.0 | 2.0 | 0.01 | 0.60 | 0.60 | 91 | 1011.2 |
| 20260509035513 | 60 | 173 | 0.0 | 2.0 | 0.01 | 0.60 | 0.60 | 91 | 1011.1 |
| 20260509035008 | 60 | 173 | 0.0 | 2.0 | 0.01 | 0.60 | 0.60 | 91 | 1011.1 |
| 20260509034514 | 61 | 173 | 0.0 | 2.0 | 0.01 | 0.60 | 0.60 | 91 | 1011.0 |
| 20260509034010 | 61 | 173 | 0.0 | 2.0 | 0.01 | 0.60 | 0.60 | 91 | 1011.0 |
| 20260509033507 | 61 | 173 | 0.0 | 5.0 | 0.00 | 0.58 | 0.58 | 91 | 1011.0 |
| 20260509033012 | 61 | 173 | 2.0 | 5.0 | 0.00 | 0.58 | 0.58 | 91 | 1011.0 |
| 20260509032508 | 61 | 181 | 1.0 | 3.0 | 0.00 | 0.58 | 0.58 | 91 | 1010.9 |
| 20260509032010 | 61 | 156 | 2.0 | 4.0 | 0.00 | 0.58 | 0.58 | 91 | 1010.7 |
| 20260509031532 | 61 | 156 | 1.0 | 4.0 | 0.00 | 0.58 | 0.58 | 91 | 1010.8 |
| 20260509031009 | 61 | 152 | 1.0 | 4.0 | 0.00 | 0.58 | 0.58 | 91 | 1010.8 |
| 20260509030508 | 61 | 191 | 2.0 | 3.0 | 0.00 | 0.58 | 0.58 | 91 | 1010.9 |
| 20260509030033 | 61 | 181 | 1.0 | 3.0 | 0.00 | 0.58 | 0.58 | 91 | 1010.9 |
| 20260509025510 | 61 | 177 | 1.0 | 6.0 | 0.00 | 0.58 | 0.58 | 91 | 1010.7 |
| 20260509025007 | 62 | 163 | 2.0 | 7.0 | 0.00 | 0.58 | 0.58 | 91 | 1010.6 |
| 20260509024535 | 62 | 162 | 2.0 | 7.0 | 0.00 | 0.58 | 0.58 | 91 | 1010.4 |
| 20260509024011 | 62 | 175 | 2.0 | 5.0 | 0.00 | 0.58 | 0.58 | 91 | 1010.3 |
| 20260509023509 | 62 | 156 | 2.0 | 5.0 | 0.00 | 0.58 | 0.58 | 91 | 1010.3 |
| 20260509023032 | 62 | 137 | 2.0 | 5.0 | 0.00 | 0.58 | 0.58 | 91 | 1010.0 |
| 20260509022510 | 62 | 159 | 2.0 | 6.0 | 0.00 | 0.58 | 0.58 | 91 | 1009.9 |
| 20260509022011 | 62 | 171 | 2.0 | 6.0 | 0.00 | 0.58 | 0.58 | 91 | 1009.9 |
| 20260509021522 | 62 | 115 | 3.0 | 6.0 | 0.00 | 0.58 | 0.58 | 91 | 1009.7 |
| 20260509021007 | 62 | 127 | 2.0 | 7.0 | 0.00 | 0.58 | 0.58 | 91 | 1009.5 |
| 20260509020507 | 62 | 160 | 3.0 | 7.0 | 0.00 | 0.58 | 0.58 | 91 | 1009.5 |
| 20260509020021 | 62 | 158 | 3.0 | 8.0 | 0.00 | 0.58 | 0.58 | 91 | 1009.3 |
| 20260509015510 | 62 | 141 | 2.0 | 8.0 | 0.00 | 0.58 | 0.58 | 91 | 1009.1 |
| 20260509015013 | 62 | 117 | 2.0 | 6.0 | 0.00 | 0.58 | 0.58 | 91 | 1009.1 |
| 20260509014520 | 62 | 203 | 2.0 | 6.0 | 0.00 | 0.58 | 0.58 | 91 | 1008.9 |
| 20260509014009 | 63 | 106 | 2.0 | 7.0 | 0.09 | 0.58 | 0.58 | 91 | 1008.7 |
| 20260509013508 | 63 | 162 | 3.0 | 7.0 | 0.15 | 0.58 | 0.58 | 91 | 1009.1 |
| 20260509013039 | 62 | 152 | 1.0 | 4.0 | 0.15 | 0.58 | 0.58 | 90 | 1009.0 |
| 20260509012511 | 62 | 113 | 0.0 | 9.0 | 0.15 | 0.58 | 0.58 | 90 | 1008.4 |
| 20260509012009 | 62 | 126 | 3.0 | 10.0 | 0.16 | 0.58 | 0.58 | 90 | 1008.5 |
| 20260509011529 | 62 | 100 | 5.0 | 10.0 | 0.17 | 0.58 | 0.58 | 90 | 1008.5 |
| 20260509011012 | 62 | 91 | 3.0 | 7.0 | 0.19 | 0.58 | 0.58 | 90 | 1008.5 |
| 20260509010507 | 62 | 83 | 3.0 | 8.0 | 0.25 | 0.58 | 0.58 | 90 | 1008.7 |
| 20260509010028 | 63 | 112 | 2.0 | 11.0 | 0.46 | 0.58 | 0.58 | 90 | 1008.9 |
| 20260509005507 | 63 | 135 | 2.0 | 11.0 | 0.49 | 0.58 | 0.58 | 90 | 1008.9 |
| 20260509005010 | 63 | 130 | 4.0 | 10.0 | 0.49 | 0.58 | 0.58 | 90 | 1009.0 |
| 20260509004533 | 63 | 129 | 5.0 | 8.0 | 0.54 | 0.58 | 0.58 | 90 | 1008.9 |
| 20260509004009 | 62 | 119 | 3.0 | 9.0 | 0.50 | 0.50 | 0.50 | 89 | 1009.3 |
| 20260509003513 | 62 | 48 | 2.0 | 12.0 | 0.44 | 0.44 | 0.44 | 89 | 1009.2 |
| 20260509003005 | 62 | 83 | 5.0 | 16.0 | 0.44 | 0.44 | 0.44 | 88 | 1008.5 |
| 20260509002502 | 62 | 36 | 5.0 | 16.0 | 0.44 | 0.44 | 0.44 | 88 | 1008.2 |
| 20260509002003 | 61 | 35 | 7.0 | 13.0 | 0.43 | 0.43 | 0.43 | 88 | 1008.7 |
| 20260509001506 | 61 | 6 | 4.0 | 7.0 | 0.42 | 0.42 | 0.42 | 86 | 1009.2 |
| 20260509001002 | 61 | 33 | 2.0 | 17.0 | 0.40 | 0.40 | 0.40 | 86 | 1009.7 |
| 20260509000504 | 62 | 16 | 4.0 | 17.0 | 0.33 | 0.33 | 0.33 | 85 | 1009.5 |
| 20260509000004 | 62 | 38 | 10.0 | 16.0 | 0.13 | 0.13 | 0.13 | 83 | 1008.8 |
| 20260508235507 | 64 | 12 | 9.0 | 26.0 | 0.10 | 0.10 | 0.10 | 80 | 1009.0 |
| 20260508235004 | 66 | 30 | 11.0 | 26.0 | 0.10 | 0.10 | 0.10 | 76 | 1009.0 |
| 20260508234507 | 70 | 10 | 8.0 | 20.0 | 0.05 | 0.05 | 0.05 | 69 | 1009.9 |
| 20260508234004 | 71 | 6 | 4.0 | 13.0 | 0.00 | 0.00 | 0.00 | 63 | 1008.5 |
| 20260508233505 | 72 | 39 | 6.0 | 13.0 | 0.00 | 0.00 | 0.00 | 58 | 1007.9 |
| 20260508233002 | 74 | 27 | 6.0 | 21.0 | 0.00 | 0.00 | 0.00 | 50 | 1007.5 |
| 20260508232504 | 78 | 42 | 8.0 | 21.0 | 0.00 | 0.00 | 0.00 | 50 | 1007.8 |
| 20260508232004 | 79 | 338 | 0.0 | 8.0 | 0.00 | 0.00 | 0.00 | 52 | 1007.5 |
| 20260508231516 | 80 | 199 | 0.0 | 8.0 | 0.00 | 0.00 | 0.00 | 52 | 1007.3 |
| 20260508231005 | 80 | 192 | 2.0 | 8.0 | 0.00 | 0.00 | 0.00 | 52 | 1006.8 |
| 20260508230503 | 80 | 202 | 3.0 | 9.0 | 0.00 | 0.00 | 0.00 | 51 | 1006.5 |
| 20260508230030 | 80 | 250 | 3.0 | 9.0 | 0.00 | 0.00 | 0.00 | 50 | 1006.4 |
| 20260508225505 | 80 | 148 | 3.0 | 11.0 | 0.00 | 0.00 | 0.00 | 50 | 1006.4 |
| 20260508225013 | 81 | 223 | 5.0 | 12.0 | 0.00 | 0.00 | 0.00 | 49 | 1006.3 |
| 20260508224511 | 81 | 227 | 5.0 | 12.0 | 0.00 | 0.00 | 0.00 | 49 | 1006.4 |
| 20260508224005 | 81 | 171 | 2.0 | 12.0 | 0.00 | 0.00 | 0.00 | 49 | 1006.4 |
| 20260508223508 | 81 | 139 | 5.0 | 13.0 | 0.00 | 0.00 | 0.00 | 48 | 1006.4 |
| 20260508223033 | 82 | 156 | 7.0 | 13.0 | 0.00 | 0.00 | 0.00 | 47 | 1006.5 |
| 20260508222504 | 83 | 153 | 3.0 | 11.0 | 0.00 | 0.00 | 0.00 | 47 | 1006.6 |
| 20260508222008 | 83 | 161 | 6.0 | 10.0 | 0.00 | 0.00 | 0.00 | 46 | 1006.6 |
| 20260508221520 | 83 | 158 | 4.0 | 10.0 | 0.00 | 0.00 | 0.00 | 47 | 1006.6 |
| 20260508221008 | 83 | 158 | 4.0 | 10.0 | 0.00 | 0.00 | 0.00 | 45 | 1006.6 |
| 20260508220510 | 83 | 189 | 6.0 | 13.0 | 0.00 | 0.00 | 0.00 | 45 | 1006.6 |
| 20260508220034 | 84 | 171 | 4.0 | 13.0 | 0.00 | 0.00 | 0.00 | 46 | 1006.7 |
| 20260508215511 | 83 | 237 | 1.0 | 11.0 | 0.00 | 0.00 | 0.00 | 46 | 1006.8 |
| 20260508215009 | 83 | 154 | 5.0 | 12.0 | 0.00 | 0.00 | 0.00 | 46 | 1006.9 |
| 20260508214524 | 83 | 173 | 4.0 | 12.0 | 0.00 | 0.00 | 0.00 | 46 | 1007.1 |
| 20260508214005 | 83 | 169 | 5.0 | 11.0 | 0.00 | 0.00 | 0.00 | 46 | 1007.1 |
| 20260508213504 | 83 | 171 | 3.0 | 12.0 | 0.00 | 0.00 | 0.00 | 46 | 1007.2 |
| 20260508213042 | 83 | 178 | 6.0 | 12.0 | 0.00 | 0.00 | 0.00 | 45 | 1007.4 |
| 20260508212505 | 82 | 198 | 3.0 | 10.0 | 0.00 | 0.00 | 0.00 | 46 | 1007.5 |
| 20260508212008 | 82 | 211 | 3.0 | 11.0 | 0.00 | 0.00 | 0.00 | 45 | 1007.7 |
| 20260508211518 | 82 | 156 | 4.0 | 12.0 | 0.00 | 0.00 | 0.00 | 46 | 1007.7 |
| 20260508211005 | 81 | 175 | 3.0 | 15.0 | 0.00 | 0.00 | 0.00 | 47 | 1007.8 |
| 20260508210504 | 82 | 153 | 4.0 | 15.0 | 0.00 | 0.00 | 0.00 | 45 | 1007.9 |
| 20260508210016 | 81 | 219 | 7.0 | 12.0 | 0.00 | 0.00 | 0.00 | 47 | 1008.0 |
| 20260508205506 | 81 | 177 | 6.0 | 12.0 | 0.00 | 0.00 | 0.00 | 46 | 1008.1 |
| 20260508205009 | 82 | 252 | 3.0 | 12.0 | 0.00 | 0.00 | 0.00 | 46 | 1008.1 |
| 20260508204512 | 82 | 185 | 4.0 | 12.0 | 0.00 | 0.00 | 0.00 | 45 | 1008.1 |
| 20260508204005 | 82 | 171 | 5.0 | 13.0 | 0.00 | 0.00 | 0.00 | 45 | 1008.2 |
| 20260508203508 | 82 | 208 | 5.0 | 13.0 | 0.00 | 0.00 | 0.00 | 46 | 1008.4 |
| 20260508203014 | 81 | 250 | 3.0 | 13.0 | 0.00 | 0.00 | 0.00 | 46 | 1008.4 |
| 20260508202504 | 82 | 217 | 7.0 | 14.0 | 0.00 | 0.00 | 0.00 | 45 | 1008.5 |
| 20260508202007 | 81 | 177 | 4.0 | 14.0 | 0.00 | 0.00 | 0.00 | 45 | 1008.6 |
| 20260508201508 | 81 | 160 | 7.0 | 15.0 | 0.00 | 0.00 | 0.00 | 46 | 1008.7 |
| 20260508201008 | 81 | 171 | 7.0 | 15.0 | 0.00 | 0.00 | 0.00 | 46 | 1008.7 |
| 20260508200505 | 81 | 147 | 6.0 | 14.0 | 0.00 | 0.00 | 0.00 | 43 | 1008.9 |
| 20260508200008 | 80 | 176 | 6.0 | 14.0 | 0.00 | 0.00 | 0.00 | 43 | 1008.9 |
| 20260508195507 | 81 | 199 | 5.0 | 14.0 | 0.00 | 0.00 | 0.00 | 45 | 1009.1 |
| 20260508195007 | 80 | 143 | 5.0 | 12.0 | 0.00 | 0.00 | 0.00 | 46 | 1009.2 |
| 20260508194506 | 81 | 201 | 6.0 | 14.0 | 0.00 | 0.00 | 0.00 | 43 | 1009.3 |
| 20260508194009 | 80 | 156 | 6.0 | 14.0 | 0.00 | 0.00 | 0.00 | 45 | 1009.3 |
| 20260508193507 | 80 | 162 | 7.0 | 13.0 | 0.00 | 0.00 | 0.00 | 45 | 1009.4 |
| 20260508193026 | 80 | 198 | 7.0 | 14.0 | 0.00 | 0.00 | 0.00 | 45 | 1009.4 |
| 20260508192506 | 80 | 210 | 7.0 | 17.0 | 0.00 | 0.00 | 0.00 | 45 | 1009.5 |
| 20260508192008 | 78 | 181 | 5.0 | 17.0 | 0.00 | 0.00 | 0.00 | 48 | 1009.5 |
| 20260508191529 | 79 | 244 | 7.0 | 16.0 | 0.00 | 0.00 | 0.00 | 47 | 1009.5 |
| 20260508191006 | 79 | 158 | 8.0 | 16.0 | 0.00 | 0.00 | 0.00 | 47 | 1009.6 |
| 20260508190504 | 79 | 159 | 7.0 | 14.0 | 0.00 | 0.00 | 0.00 | 45 | 1009.7 |
| 20260508190028 | 79 | 211 | 6.0 | 16.0 | 0.00 | 0.00 | 0.00 | 45 | 1009.7 |
| 20260508185505 | 78 | 209 | 7.0 | 16.0 | 0.00 | 0.00 | 0.00 | 45 | 1009.7 |
| 20260508185010 | 78 | 164 | 8.0 | 16.0 | 0.00 | 0.00 | 0.00 | 49 | 1009.8 |
| 20260508184527 | 79 | 162 | 8.0 | 16.0 | 0.00 | 0.00 | 0.00 | 47 | 1009.8 |
| 20260508184008 | 78 | 219 | 5.0 | 14.0 | 0.00 | 0.00 | 0.00 | 49 | 1009.8 |
| 20260508183511 | 78 | 176 | 4.0 | 13.0 | 0.00 | 0.00 | 0.00 | 50 | 1009.9 |
| 20260508183015 | 78 | 174 | 5.0 | 17.0 | 0.00 | 0.00 | 0.00 | 47 | 1010.0 |
| 20260508182504 | 77 | 178 | 10.0 | 17.0 | 0.00 | 0.00 | 0.00 | 48 | 1010.0 |
| 20260508182007 | 77 | 200 | 6.0 | 15.0 | 0.00 | 0.00 | 0.00 | 50 | 1010.2 |
| 20260508181537 | 77 | 179 | 5.0 | 15.0 | 0.00 | 0.00 | 0.00 | 48 | 1010.3 |
| 20260508181011 | 77 | 185 | 6.0 | 12.0 | 0.00 | 0.00 | 0.00 | 50 | 1010.4 |
| 20260508180510 | 77 | 219 | 7.0 | 17.0 | 0.00 | 0.00 | 0.00 | 49 | 1010.5 |
| 20260508180010 | 77 | 202 | 9.0 | 16.0 | 0.00 | 0.00 | 0.00 | 49 | 1010.7 |
| 20260508175508 | 76 | 162 | 9.0 | 16.0 | 0.00 | 0.00 | 0.00 | 50 | 1010.7 |
| 20260508175008 | 76 | 196 | 9.0 | 14.0 | 0.00 | 0.00 | 0.00 | 49 | 1010.8 |
| 20260508174514 | 76 | 288 | 7.0 | 14.0 | 0.00 | 0.00 | 0.00 | 50 | 1010.9 |
| 20260508174010 | 76 | 154 | 6.0 | 14.0 | 0.00 | 0.00 | 0.00 | 51 | 1011.0 |
| 20260508173506 | 76 | 118 | 5.0 | 16.0 | 0.00 | 0.00 | 0.00 | 52 | 1011.1 |
| 20260508173023 | 75 | 170 | 8.0 | 16.0 | 0.00 | 0.00 | 0.00 | 50 | 1011.3 |
| 20260508172510 | 75 | 213 | 8.0 | 15.0 | 0.00 | 0.00 | 0.00 | 50 | 1011.4 |
| 20260508172009 | 75 | 161 | 6.0 | 14.0 | 0.00 | 0.00 | 0.00 | 50 | 1011.4 |
| 20260508171526 | 75 | 240 | 4.0 | 12.0 | 0.00 | 0.00 | 0.00 | 52 | 1011.4 |
| 20260508171015 | 75 | 164 | 6.0 | 14.0 | 0.00 | 0.00 | 0.00 | 53 | 1011.6 |
| 20260508170506 | 74 | 184 | 4.0 | 14.0 | 0.00 | 0.00 | 0.00 | 54 | 1011.7 |
| 20260508170024 | 73 | 256 | 7.0 | 15.0 | 0.00 | 0.00 | 0.00 | 53 | 1011.9 |
| 20260508165507 | 73 | 202 | 6.0 | 15.0 | 0.00 | 0.00 | 0.00 | 53 | 1011.9 |
| 20260508165014 | 74 | 148 | 6.0 | 14.0 | 0.00 | 0.00 | 0.00 | 56 | 1011.9 |
| 20260508164533 | 74 | 192 | 9.0 | 18.0 | 0.00 | 0.00 | 0.00 | 53 | 1012.0 |
| 20260508164008 | 73 | 181 | 7.0 | 18.0 | 0.00 | 0.00 | 0.00 | 54 | 1012.1 |
| 20260508163511 | 72 | 145 | 7.0 | 17.0 | 0.00 | 0.00 | 0.00 | 53 | 1012.2 |
| 20260508163017 | 72 | 194 | 8.0 | 19.0 | 0.00 | 0.00 | 0.00 | 54 | 1012.3 |
| 20260508162512 | 72 | 194 | 8.0 | 19.0 | 0.00 | 0.00 | 0.00 | 54 | 1012.3 |
| 20260508162009 | 72 | 228 | 7.0 | 16.0 | 0.00 | 0.00 | 0.00 | 53 | 1012.3 |
| 20260508161516 | 72 | 164 | 7.0 | 16.0 | 0.00 | 0.00 | 0.00 | 56 | 1012.4 |
| 20260508161011 | 72 | 181 | 6.0 | 19.0 | 0.00 | 0.00 | 0.00 | 55 | 1012.5 |
| 20260508160507 | 71 | 197 | 11.0 | 19.0 | 0.00 | 0.00 | 0.00 | 56 | 1012.6 |
| 20260508160032 | 72 | 175 | 8.0 | 14.0 | 0.00 | 0.00 | 0.00 | 56 | 1012.5 |
| 20260508155513 | 72 | 166 | 7.0 | 19.0 | 0.00 | 0.00 | 0.00 | 56 | 1012.6 |
| 20260508155009 | 71 | 157 | 6.0 | 19.0 | 0.00 | 0.00 | 0.00 | 60 | 1012.7 |
| 20260508154527 | 70 | 142 | 6.0 | 18.0 | 0.00 | 0.00 | 0.00 | 60 | 1012.8 |
| 20260508154013 | 69 | 206 | 7.0 | 21.0 | 0.00 | 0.00 | 0.00 | 59 | 1013.0 |
| 20260508153507 | 69 | 180 | 8.0 | 22.0 | 0.00 | 0.00 | 0.00 | 59 | 1013.1 |
| 20260508153026 | 69 | 185 | 8.0 | 22.0 | 0.00 | 0.00 | 0.00 | 60 | 1013.2 |
| 20260508152509 | 69 | 167 | 8.0 | 19.0 | 0.00 | 0.00 | 0.00 | 60 | 1013.4 |
| 20260508152005 | 69 | 183 | 7.0 | 15.0 | 0.00 | 0.00 | 0.00 | 62 | 1013.4 |
| 20260508151506 | 68 | 223 | 9.0 | 15.0 | 0.00 | 0.00 | 0.00 | 61 | 1013.5 |
| 20260508151006 | 68 | 186 | 8.0 | 14.0 | 0.00 | 0.00 | 0.00 | 62 | 1013.5 |
| 20260508150510 | 68 | 152 | 9.0 | 17.0 | 0.00 | 0.00 | 0.00 | 63 | 1013.6 |
| 20260508150005 | 67 | 213 | 9.0 | 17.0 | 0.00 | 0.00 | 0.00 | 63 | 1013.6 |
| 20260508145510 | 67 | 172 | 9.0 | 16.0 | 0.00 | 0.00 | 0.00 | 64 | 1013.8 |
| 20260508145004 | 67 | 210 | 7.0 | 16.0 | 0.00 | 0.00 | 0.00 | 65 | 1013.8 |
| 20260508144504 | 67 | 164 | 7.0 | 13.0 | 0.00 | 0.00 | 0.00 | 65 | 1013.8 |
| 20260508144004 | 66 | 162 | 6.0 | 13.0 | 0.00 | 0.00 | 0.00 | 66 | 1013.9 |
| 20260508143507 | 66 | 167 | 6.0 | 12.0 | 0.00 | 0.00 | 0.00 | 68 | 1013.9 |
| 20260508143003 | 65 | 150 | 6.0 | 10.0 | 0.00 | 0.00 | 0.00 | 69 | 1013.9 |
| 20260508142504 | 64 | 174 | 4.0 | 10.0 | 0.00 | 0.00 | 0.00 | 69 | 1014.0 |
| 20260508142004 | 64 | 189 | 3.0 | 12.0 | 0.00 | 0.00 | 0.00 | 70 | 1014.1 |
| 20260508141512 | 64 | 219 | 5.0 | 13.0 | 0.00 | 0.00 | 0.00 | 69 | 1014.2 |
| 20260508141005 | 63 | 179 | 6.0 | 13.0 | 0.00 | 0.00 | 0.00 | 70 | 1014.2 |
| 20260508140503 | 63 | 167 | 3.0 | 12.0 | 0.00 | 0.00 | 0.00 | 72 | 1014.1 |
| 20260508140012 | 62 | 205 | 2.0 | 13.0 | 0.00 | 0.00 | 0.00 | 73 | 1014.1 |
| 20260508135504 | 62 | 195 | 5.0 | 13.0 | 0.00 | 0.00 | 0.00 | 73 | 1014.2 |
| 20260508135003 | 62 | 164 | 3.0 | 8.0 | 0.00 | 0.00 | 0.00 | 73 | 1014.2 |
| 20260508134514 | 61 | 166 | 3.0 | 8.0 | 0.00 | 0.00 | 0.00 | 75 | 1014.3 |
| 20260508134004 | 61 | 197 | 4.0 | 8.0 | 0.00 | 0.00 | 0.00 | 74 | 1014.3 |
| 20260508133508 | 60 | 194 | 3.0 | 8.0 | 0.00 | 0.00 | 0.00 | 75 | 1014.3 |
| 20260508133020 | 60 | 139 | 3.0 | 10.0 | 0.00 | 0.00 | 0.00 | 76 | 1014.3 |
| 20260508132505 | 59 | 150 | 3.0 | 11.0 | 0.00 | 0.00 | 0.00 | 76 | 1014.3 |
| 20260508132008 | 59 | 178 | 2.0 | 11.0 | 0.00 | 0.00 | 0.00 | 77 | 1014.3 |
| 20260508131506 | 58 | 177 | 3.0 | 5.0 | 0.00 | 0.00 | 0.00 | 78 | 1014.3 |
| 20260508131002 | 57 | 161 | 1.0 | 4.0 | 0.00 | 0.00 | 0.00 | 79 | 1014.2 |
| 20260508130506 | 57 | 201 | 1.0 | 4.0 | 0.00 | 0.00 | 0.00 | 79 | 1014.2 |
| 20260508130007 | 56 | 216 | 1.0 | 4.0 | 0.00 | 0.00 | 0.00 | 80 | 1014.3 |
| 20260508125509 | 56 | 205 | 1.0 | 7.0 | 0.00 | 0.00 | 0.00 | 81 | 1014.2 |
| 20260508125006 | 55 | 159 | 2.0 | 7.0 | 0.00 | 0.00 | 0.00 | 81 | 1014.2 |
| 20260508124503 | 55 | 164 | 2.0 | 7.0 | 0.00 | 0.00 | 0.00 | 82 | 1014.2 |
| 20260508124009 | 54 | 162 | 2.0 | 4.0 | 0.00 | 0.00 | 0.00 | 82 | 1014.1 |
| 20260508123504 | 54 | 103 | 0.0 | 4.0 | 0.00 | 0.00 | 0.00 | 82 | 1014.1 |
| 20260508123004 | 54 | 196 | 1.0 | 4.0 | 0.00 | 0.00 | 0.00 | 82 | 1014.0 |
| 20260508122507 | 54 | 170 | 1.0 | 7.0 | 0.00 | 0.00 | 0.00 | 82 | 1013.9 |
| 20260508122003 | 53 | 156 | 1.0 | 7.0 | 0.00 | 0.00 | 0.00 | 82 | 1013.9 |
| 20260508121516 | 53 | 157 | 2.0 | 7.0 | 0.00 | 0.00 | 0.00 | 82 | 1013.9 |
| 20260508121005 | 53 | 167 | 2.0 | 4.0 | 0.00 | 0.00 | 0.00 | 82 | 1013.8 |
| 20260508120503 | 53 | 165 | 1.0 | 4.0 | 0.00 | 0.00 | 0.00 | 82 | 1013.8 |
| 20260508120017 | 53 | 185 | 0.0 | 4.0 | 0.00 | 0.00 | 0.00 | 81 | 1013.8 |
| 20260508115504 | 53 | 187 | 1.0 | 4.0 | 0.00 | 0.00 | 0.00 | 81 | 1013.7 |
| 20260508115009 | 53 | 200 | 1.0 | 4.0 | 0.00 | 0.00 | 0.00 | 81 | 1013.7 |
| 20260508114516 | 53 | 202 | 1.0 | 4.0 | 0.00 | 0.00 | 0.00 | 81 | 1013.7 |
| 20260508114006 | 53 | 205 | 1.0 | 4.0 | 0.00 | 0.00 | 0.00 | 81 | 1013.7 |
| 20260508113507 | 53 | 200 | 1.0 | 4.0 | 0.00 | 0.00 | 0.00 | 80 | 1013.6 |
| 20260508113016 | 53 | 175 | 1.0 | 4.0 | 0.00 | 0.00 | 0.00 | 80 | 1013.6 |
| 20260508112502 | 53 | 164 | 1.0 | 6.0 | 0.00 | 0.00 | 0.00 | 80 | 1013.6 |
| 20260508112009 | 53 | 198 | 2.0 | 6.0 | 0.00 | 0.00 | 0.00 | 79 | 1013.5 |
| 20260508111512 | 53 | 157 | 2.0 | 8.0 | 0.00 | 0.00 | 0.00 | 79 | 1013.4 |
| 20260508111009 | 53 | 184 | 3.0 | 8.0 | 0.00 | 0.00 | 0.00 | 79 | 1013.3 |
| 20260508110508 | 53 | 193 | 2.0 | 8.0 | 0.00 | 0.00 | 0.00 | 78 | 1013.3 |
| 20260508110009 | 53 | 200 | 2.0 | 8.0 | 0.00 | 0.00 | 0.00 | 78 | 1013.2 |
| 20260508105508 | 53 | 199 | 2.0 | 7.0 | 0.00 | 0.00 | 0.00 | 78 | 1013.1 |
| 20260508105005 | 54 | 204 | 2.0 | 7.0 | 0.00 | 0.00 | 0.00 | 77 | 1013.1 |
| 20260508104506 | 54 | 181 | 3.0 | 7.0 | 0.00 | 0.00 | 0.00 | 77 | 1013.0 |
| 20260508104008 | 54 | 162 | 2.0 | 5.0 | 0.00 | 0.00 | 0.00 | 77 | 1012.9 |
| 20260508103504 | 54 | 188 | 2.0 | 6.0 | 0.00 | 0.00 | 0.00 | 76 | 1012.9 |
| 20260508103029 | 54 | 171 | 2.0 | 6.0 | 0.00 | 0.00 | 0.00 | 76 | 1012.9 |
| 20260508102509 | 54 | 206 | 2.0 | 8.0 | 0.00 | 0.00 | 0.00 | 76 | 1012.9 |
| 20260508102007 | 54 | 176 | 3.0 | 8.0 | 0.00 | 0.00 | 0.00 | 75 | 1012.9 |
| 20260508101534 | 54 | 133 | 3.0 | 8.0 | 0.00 | 0.00 | 0.00 | 75 | 1012.9 |
| 20260508101010 | 54 | 180 | 3.0 | 7.0 | 0.00 | 0.00 | 0.00 | 75 | 1012.7 |
| 20260508100503 | 54 | 168 | 3.0 | 9.0 | 0.00 | 0.00 | 0.00 | 75 | 1012.7 |
| 20260508100020 | 54 | 158 | 3.0 | 9.0 | 0.00 | 0.00 | 0.00 | 74 | 1012.7 |
| 20260508095504 | 54 | 183 | 4.0 | 8.0 | 0.00 | 0.00 | 0.00 | 74 | 1012.7 |
| 20260508095010 | 54 | 177 | 2.0 | 8.0 | 0.00 | 0.00 | 0.00 | 74 | 1012.7 |
| 20260508094519 | 54 | 163 | 2.0 | 4.0 | 0.00 | 0.00 | 0.00 | 74 | 1012.7 |
| 20260508094006 | 54 | 169 | 1.0 | 3.0 | 0.00 | 0.00 | 0.00 | 74 | 1012.7 |
| 20260508093510 | 54 | 161 | 1.0 | 4.0 | 0.00 | 0.00 | 0.00 | 74 | 1012.7 |
| 20260508093019 | 54 | 158 | 1.0 | 4.0 | 0.00 | 0.00 | 0.00 | 74 | 1012.6 |
| 20260508092503 | 54 | 173 | 1.0 | 3.0 | 0.00 | 0.00 | 0.00 | 74 | 1012.7 |
| 20260508092010 | 54 | 191 | 0.0 | 4.0 | 0.00 | 0.00 | 0.00 | 74 | 1012.7 |
| 20260508091513 | 54 | 185 | 1.0 | 4.0 | 0.00 | 0.00 | 0.00 | 75 | 1012.5 |
| 20260508091007 | 54 | 151 | 2.0 | 5.0 | 0.00 | 0.00 | 0.00 | 75 | 1012.7 |
| 20260508090507 | 53 | 170 | 1.0 | 6.0 | 0.00 | 0.00 | 0.00 | 75 | 1012.7 |
| 20260508090012 | 53 | 159 | 3.0 | 6.0 | 0.00 | 0.00 | 0.00 | 76 | 1012.8 |
| 20260508085507 | 53 | 166 | 1.0 | 2.0 | 0.00 | 0.00 | 0.00 | 76 | 1012.8 |
| 20260508085009 | 53 | 162 | 1.0 | 4.0 | 0.00 | 0.00 | 0.00 | 77 | 1012.9 |
| 20260508084509 | 53 | 162 | 1.0 | 4.0 | 0.00 | 0.00 | 0.00 | 77 | 1012.9 |
| 20260508084011 | 52 | 166 | 1.0 | 8.0 | 0.00 | 0.00 | 0.00 | 77 | 1012.8 |
| 20260508083507 | 52 | 169 | 1.0 | 8.0 | 0.00 | 0.00 | 0.00 | 77 | 1012.8 |
| 20260508083028 | 52 | 165 | 2.0 | 8.0 | 0.00 | 0.00 | 0.00 | 77 | 1012.9 |
| 20260508082508 | 53 | 160 | 0.0 | 0.0 | 0.00 | 0.00 | 0.00 | 77 | 1012.9 |
| 20260508082008 | 53 | 160 | 0.0 | 0.0 | 0.00 | 0.00 | 0.00 | 77 | 1012.9 |
| 20260508081522 | 53 | 160 | 0.0 | 0.0 | 0.00 | 0.00 | 0.00 | 77 | 1012.9 |
| 20260508081009 | 53 | 160 | 0.0 | 0.0 | 0.00 | 0.00 | 0.00 | 77 | 1013.0 |
| 20260508080507 | 53 | 160 | 0.0 | 0.0 | 0.00 | 0.00 | 0.00 | 76 | 1013.0 |
| 20260508080024 | 53 | 160 | 0.0 | 0.0 | 0.00 | 0.00 | 0.00 | 76 | 1013.1 |
| 20260508075507 | 53 | 160 | 0.0 | 0.0 | 0.00 | 0.00 | 0.00 | 76 | 1013.2 |
| 20260508075007 | 53 | 160 | 0.0 | 2.0 | 0.00 | 0.00 | 0.00 | 76 | 1013.2 |
| 20260508074522 | 53 | 160 | 0.0 | 2.0 | 0.00 | 0.00 | 0.00 | 75 | 1013.4 |
| 20260508074009 | 53 | 160 | 0.0 | 2.0 | 0.00 | 0.00 | 0.00 | 75 | 1013.4 |
| 20260508073509 | 54 | 160 | 0.0 | 0.0 | 0.00 | 0.00 | 0.00 | 74 | 1013.5 |
| 20260508073027 | 54 | 160 | 0.0 | 2.0 | 0.00 | 0.00 | 0.00 | 73 | 1013.5 |